Theta_e
332 331 333 330 332 337 343 346 350 352 352 350 348 349 350 352 354 357 357 355 356 354 353 350 347 347 348 348 348 351 350 349 349 347 345 345 345 345 346 345 346 345 346 345 344 343 342 341 336 331 328 327 326 327 328 328 330 330 331 332 333 333 333 334 336 338 337 336 336 339 340 340 342 342 342 342 342 342 343 343 343 344 344 344 343 341 336 337 341 342 342 342 343 343 342 342 342
335 334 333 333 336 342 347 347 353 355 351 347 346 350 351 354 355 356 356 355 357 354 352 348 347 349 350 349 349 350 350 350 348 347 347 345 345 346 345 345 345 344 344 343 343 342 342 340 336 333 331 331 332 334 334 335 336 337 339 340 340 340 339 339 341 341 339 338 338 338 339 340 342 341 341 341 342 342 343 343 343 344 344 343 343 341 336 338 342 342 343 343 343 343 342 342 342
339 337 335 338 341 346 350 349 354 352 347 345 346 351 353 355 355 355 356 356 357 353 350 348 350 352 350 349 350 350 349 349 346 345 348 347 346 346 345 345 344 344 342 340 342 342 342 341 337 336 336 337 338 339 340 339 339 340 341 341 341 342 342 343 344 343 339 338 338 339 339 340 341 340 340 341 342 341 342 343 343 343 344 343 343 341 337 339 342 342 343 343 343 343 343 342 342
342 339 337 342 345 348 352 353 355 350 346 345 345 352 354 355 355 356 358 357 355 351 348 349 352 352 352 351 350 350 350 349 346 344 348 348 346 345 345 344 344 343 340 340 342 343 344 340 337 338 340 341 341 341 342 342 342 342 342 342 342 343 343 344 344 342 339 339 340 340 340 340 340 341 341 342 342 342 342 343 343 343 343 342 342 340 337 340 342 342 343 343 343 343 343 342 341
341 337 338 344 348 350 353 354 354 349 347 347 347 352 355 354 355 356 358 356 354 351 349 350 352 352 352 352 351 351 350 349 347 345 347 347 345 344 344 344 343 342 340 341 342 342 342 338 337 340 341 342 342 342 343 344 344 344 344 344 344 344 344 345 344 341 340 340 340 340 340 340 340 341 341 341 342 342 343 343 343 343 343 343 342 340 338 339 342 343 343 343 343 342 342 342 341
338 335 339 345 349 351 354 353 351 349 349 351 351 353 354 354 356 356 356 355 354 352 350 351 352 352 352 351 352 351 350 349 346 345 347 347 344 343 344 343 343 341 339 340 341 341 339 337 339 341 341 342 342 343 343 344 344 344 344 344 344 344 344 345 344 341 340 341 340 340 341 340 340 341 341 341 342 342 343 343 343 343 343 343 342 341 339 339 342 343 343 342 342 343 343 342 341
340 340 342 348 351 352 354 352 350 349 351 353 352 353 354 354 356 355 354 354 353 352 351 352 353 353 352 350 351 349 350 348 344 345 347 345 343 343 342 342 342 340 338 339 340 339 337 338 340 341 341 342 342 342 343 343 343 344 344 344 344 344 344 344 344 342 341 341 341 341 340 340 340 341 342 343 343 343 342 342 343 342 343 343 342 341 339 339 342 343 342 342 341 342 343 342 341
346 348 348 351 354 353 353 351 350 350 352 353 353 354 354 355 356 354 353 354 353 353 352 353 353 353 352 351 351 350 350 347 343 344 346 345 343 343 342 341 340 338 337 337 338 338 339 340 341 341 341 342 342 342 343 343 343 344 343 343 344 344 343 343 343 343 342 342 342 342 341 341 342 343 344 344 343 343 342 342 342 342 343 343 342 342 339 337 341 343 342 342 342 342 342 342 342
349 352 352 354 354 352 350 349 350 351 352 354 354 354 356 355 355 353 352 353 353 353 353 353 353 354 352 351 352 350 350 346 343 344 345 344 344 343 342 341 339 337 337 336 335 338 341 341 341 341 342 342 342 342 342 342 342 343 343 343 343 343 343 343 343 343 343 343 343 343 343 343 343 344 344 344 344 343 342 341 341 341 342 342 342 342 340 336 338 341 341 342 342 343 343 343 342
351 352 352 354 353 349 346 347 348 351 353 354 353 355 356 355 354 354 352 352 352 353 354 353 353 353 352 352 352 351 350 346 342 344 345 344 344 342 342 341 338 335 335 334 332 337 342 342 340 341 342 342 342 342 342 341 341 341 342 342 342 343 343 344 344 344 344 343 343 343 343 343 343 344 344 344 343 342 342 341 341 341 341 341 341 341 340 337 336 338 341 342 343 343 343 343 343
353 352 352 353 351 347 345 346 349 351 352 353 355 357 356 355 355 355 354 352 353 354 353 353 353 353 352 352 352 350 349 345 343 345 345 345 344 342 341 340 339 335 333 332 330 336 342 342 340 341 342 342 342 342 341 340 340 341 342 342 342 343 343 343 343 343 343 343 343 343 343 343 343 343 343 342 341 342 342 341 341 341 341 341 341 341 340 339 337 338 341 342 342 342 343 343 342
353 353 353 352 349 348 347 347 350 351 352 353 355 358 356 355 355 354 354 353 353 354 353 354 353 353 352 352 351 349 348 346 345 346 345 345 344 341 339 340 340 336 333 332 329 336 343 342 340 341 342 342 342 342 340 340 341 341 342 342 342 342 342 342 342 342 343 343 342 342 343 342 342 342 342 341 341 341 342 342 341 341 341 341 341 341 340 340 338 338 341 342 342 342 342 342 342
353 353 353 351 350 349 349 349 351 352 352 353 355 357 356 355 355 354 354 354 353 353 352 353 353 352 351 352 351 349 348 348 346 346 346 345 344 341 340 341 341 337 333 330 328 335 342 342 340 341 342 342 342 342 340 341 342 341 341 342 342 341 341 341 342 343 343 343 342 342 342 342 342 342 341 341 341 341 341 341 341 341 341 341 341 341 341 341 339 337 339 341 341 341 341 341 341
353 353 352 352 351 350 350 350 351 351 350 353 356 357 356 355 355 354 353 352 353 353 352 352 352 352 352 352 351 348 348 348 347 348 347 345 344 341 341 341 340 338 334 329 327 334 342 341 340 341 343 342 342 342 341 342 342 342 341 341 341 341 341 342 342 343 342 342 341 341 341 341 342 341 341 340 340 339 340 340 341 340 340 341 341 341 341 341 340 339 338 339 341 341 341 340 340
353 353 352 352 351 351 351 350 350 348 348 352 356 357 357 357 355 354 354 352 353 353 351 351 351 351 353 352 351 349 348 348 348 348 347 345 343 342 341 341 341 339 333 330 329 333 341 341 339 341 343 343 342 343 343 343 342 342 342 341 341 341 341 342 343 342 342 341 341 340 341 340 341 341 340 339 338 338 338 339 339 339 340 340 340 340 341 341 341 340 338 339 341 341 341 341 341
353 353 353 351 350 350 350 351 350 347 348 353 357 358 356 357 356 355 355 353 353 352 351 352 351 350 352 352 352 349 348 348 348 348 347 344 343 343 342 342 342 338 333 334 333 335 341 340 339 342 343 342 342 343 344 343 343 342 342 341 341 341 341 342 342 342 341 341 340 341 341 341 341 341 341 340 338 337 337 337 337 337 338 339 339 340 341 341 342 341 340 340 341 341 341 341 341
353 354 354 351 351 351 350 350 348 346 349 354 358 358 354 355 355 355 353 353 353 352 352 352 350 350 351 352 351 348 348 349 348 348 347 345 345 345 344 343 343 339 338 339 337 337 341 340 340 342 342 340 341 343 344 343 342 342 341 340 340 341 341 340 340 340 341 340 340 340 341 341 341 341 341 341 340 339 338 338 337 337 336 335 337 339 340 340 341 341 340 340 341 342 342 342 341
353 353 353 352 352 352 350 349 347 346 350 354 358 357 354 354 354 355 353 354 353 352 353 352 351 350 350 351 350 348 348 348 348 348 347 346 346 346 345 344 343 341 342 342 340 338 340 340 340 342 342 339 340 342 343 343 342 341 341 340 340 340 340 340 340 340 340 340 339 339 340 340 341 341 341 341 342 341 340 339 340 340 338 335 334 335 336 338 340 341 340 340 340 341 341 341 342
353 352 352 352 352 352 351 349 349 347 349 354 358 357 354 354 354 354 354 354 353 352 353 352 352 351 350 351 349 348 348 348 348 348 347 346 346 347 346 345 344 343 343 343 342 338 338 341 340 342 342 338 339 340 342 343 342 341 341 341 340 341 341 340 341 340 339 338 337 337 338 338 339 340 340 341 341 340 340 340 340 340 340 339 337 335 335 338 341 341 341 340 340 341 341 341 342
353 352 352 352 351 352 351 351 351 349 349 353 357 356 355 355 354 354 354 353 352 352 353 353 352 351 350 350 349 348 348 348 348 348 346 346 347 347 347 347 345 344 344 343 343 337 335 340 341 342 342 339 339 339 341 343 342 342 342 341 340 341 341 340 339 338 338 336 335 336 337 337 337 338 339 339 340 340 340 340 340 340 340 340 340 339 338 340 340 340 340 340 341 341 341 341 341
353 352 352 352 351 350 352 351 350 349 349 353 355 355 354 354 354 354 354 353 351 353 354 353 352 351 350 350 349 347 348 348 348 348 347 346 347 348 348 347 346 346 345 344 343 337 332 336 340 343 341 339 340 340 341 342 341 341 341 341 340 340 339 338 337 336 336 334 334 335 335 335 336 337 339 339 340 341 341 341 342 341 341 340 341 340 340 340 340 339 340 340 341 341 341 341 340
352 352 352 353 352 350 352 351 349 349 351 353 354 353 353 354 354 354 354 353 353 354 354 353 351 350 350 349 348 348 348 348 348 348 347 347 347 348 348 347 347 347 346 345 344 338 331 331 337 341 342 340 340 340 340 341 341 340 340 339 339 338 337 336 335 334 334 333 332 333 333 333 334 335 338 340 340 341 342 343 342 342 342 340 339 339 340 340 339 340 340 340 340 340 340 340 340
350 352 353 353 352 352 353 352 351 351 351 352 352 352 353 354 354 354 354 353 353 353 353 353 351 349 349 349 348 348 348 348 348 348 347 347 347 347 348 348 348 348 346 346 345 338 330 329 333 338 340 341 340 339 341 341 340 339 339 338 336 335 334 334 333 333 333 332 332 332 332 333 334 334 336 338 340 342 343 343 343 343 343 342 340 339 339 339 339 339 339 339 339 340 339 339 340
349 350 352 352 352 352 352 352 352 351 350 350 351 352 353 353 353 353 354 353 352 352 352 352 351 349 349 348 348 348 348 348 348 348 347 347 346 347 348 348 348 348 346 347 346 338 329 327 329 333 336 337 336 337 340 341 340 339 337 336 334 333 332 332 332 332 331 331 332 333 334 335 336 334 335 338 341 343 344 344 344 343 343 343 342 340 339 339 339 339 339 339 339 339 339 339 339
347 349 350 351 350 350 350 349 349 349 349 349 349 351 352 353 353 353 354 353 352 351 351 352 350 349 349 348 348 348 348 348 348 348 348 348 346 347 348 349 348 348 346 346 344 335 329 327 327 329 331 333 333 333 336 337 338 337 336 335 333 331 331 332 332 332 332 333 335 336 338 338 338 337 336 338 340 343 344 345 345 344 343 343 343 342 340 340 340 340 339 339 338 338 339 338 338
345 349 349 349 348 348 347 347 347 346 347 347 348 348 350 352 352 352 354 352 352 351 352 352 351 350 350 349 348 348 348 348 348 348 348 347 347 348 349 349 349 347 345 345 342 333 328 326 326 327 329 331 331 331 332 332 333 334 334 334 333 332 332 332 332 333 334 336 338 339 340 340 341 341 340 339 341 343 344 345 345 345 344 343 343 343 342 342 341 341 340 340 339 338 338 338 338
343 346 348 349 348 348 347 346 346 345 345 346 345 345 347 351 350 351 353 353 351 352 353 352 351 351 350 350 349 349 348 348 348 348 348 348 348 348 348 348 347 345 344 344 340 332 327 326 326 325 327 329 329 330 331 329 330 331 332 333 334 334 334 333 334 336 338 339 339 339 340 341 343 343 342 342 343 344 345 345 345 345 344 343 343 343 343 343 343 343 342 341 340 339 339 339 339
342 342 343 344 344 344 344 344 345 343 343 344 345 344 346 350 349 350 353 352 352 353 353 352 352 352 351 350 350 349 349 348 348 348 348 347 347 346 346 346 344 344 343 342 339 332 327 325 325 325 326 327 327 328 329 328 329 329 331 332 333 335 336 337 337 339 340 340 339 338 339 342 343 344 344 344 345 345 346 346 346 346 345 344 344 344 344 345 345 345 345 344 343 342 340 339 339
340 339 338 339 338 339 339 341 342 341 341 343 345 344 345 348 348 350 352 352 353 353 354 353 353 353 351 350 350 350 349 349 349 348 348 347 346 345 344 342 340 342 342 341 339 332 326 325 325 325 325 326 326 327 328 327 327 328 329 330 332 335 338 339 339 341 341 341 340 337 339 342 343 344 345 345 345 346 346 346 346 346 345 344 344 343 344 345 346 346 346 346 345 344 342 339 339
339 338 337 338 337 338 340 340 340 340 341 344 345 343 345 347 348 351 352 352 354 354 354 354 353 353 351 351 350 350 349 349 349 348 348 347 346 344 342 340 338 339 341 341 339 333 327 325 325 325 325 325 326 326 327 327 327 328 329 330 331 333 336 338 340 342 341 342 341 339 340 342 342 344 346 345 345 346 346 346 346 346 345 344 344 344 344 345 345 345 345 345 346 345 344 340 339
335 335 334 335 334 337 340 339 339 340 341 344 344 340 343 346 347 350 352 353 353 354 355 354 354 353 352 351 350 350 350 349 349 348 348 346 345 344 341 341 339 338 340 339 336 331 327 325 325 325 325 326 326 326 326 326 327 328 329 331 332 333 334 336 338 341 342 342 343 343 343 343 343 344 346 346 346 346 346 346 347 346 345 345 344 344 345 346 346 345 344 345 346 347 346 344 340
330 329 328 332 332 335 339 338 339 341 342 345 343 339 343 345 346 350 352 353 354 354 354 354 354 353 352 351 351 350 350 349 349 349 348 346 346 345 341 340 340 339 339 336 334 331 328 326 324 325 325 326 326 326 326 326 326 327 327 330 333 334 335 336 337 339 341 342 343 344 345 346 345 345 347 347 347 347 346 346 346 346 346 344 343 344 345 346 346 345 345 345 347 347 347 346 343
328 326 325 329 330 332 338 338 338 340 342 345 342 341 344 345 346 350 352 352 354 354 354 354 354 353 352 351 351 351 350 350 350 349 348 346 345 345 341 340 340 340 339 337 335 332 329 326 325 325 325 326 326 326 326 326 326 326 326 327 331 333 335 337 339 339 340 343 343 343 345 346 346 346 347 347 347 347 346 346 346 346 346 344 342 344 345 345 345 345 345 346 347 347 346 345 344
326 326 326 329 331 331 334 336 337 338 341 344 344 342 343 343 346 351 351 352 353 354 354 354 353 353 353 352 351 351 350 350 350 350 349 346 344 343 341 340 340 340 340 338 336 334 330 327 324 325 325 325 326 326 326 326 326 326 326 326 328 331 333 334 337 338 339 342 343 344 345 346 346 347 347 347 347 347 347 346 346 346 345 344 343 343 344 345 346 346 346 346 347 346 346 345 344
325 325 325 327 331 332 334 336 336 336 339 342 343 344 343 342 346 350 352 352 353 354 354 354 353 353 353 352 351 351 351 351 351 350 349 347 345 343 341 341 340 340 341 340 339 337 334 330 326 324 325 325 325 325 326 326 326 326 326 326 326 329 332 333 334 337 338 340 342 343 344 345 345 346 346 346 346 346 346 346 346 346 345 345 344 344 344 344 345 347 347 347 346 346 346 345 344
326 327 326 326 328 330 333 335 334 335 339 341 342 343 344 343 345 349 351 352 353 354 354 354 353 353 353 352 352 352 351 351 351 350 350 348 346 343 342 341 340 340 341 341 341 340 338 334 329 326 325 325 326 325 325 326 325 326 326 325 325 327 330 332 333 335 338 339 340 340 341 343 343 342 343 344 344 344 345 345 346 346 345 344 343 344 344 344 345 347 348 348 347 345 346 346 345
326 327 328 328 327 329 333 333 332 334 336 338 341 342 342 343 344 348 351 352 352 353 354 354 354 353 353 353 352 352 352 351 351 351 350 349 347 345 342 341 340 340 340 341 342 342 340 337 333 327 325 325 325 325 326 326 326 326 325 325 325 325 327 331 333 334 338 340 340 339 339 339 339 339 339 340 341 341 341 342 342 343 345 345 344 345 345 344 344 346 348 349 347 346 346 346 346
325 326 326 327 328 329 331 331 331 333 334 335 339 341 341 342 343 347 350 350 351 352 353 354 354 353 353 353 352 352 352 352 351 351 351 350 350 348 345 343 342 341 342 343 343 343 342 340 336 331 327 325 325 325 326 325 326 325 325 325 325 325 326 329 332 333 337 341 341 341 340 338 337 337 338 338 339 340 339 339 339 340 342 344 345 346 346 344 343 344 346 348 347 346 347 347 346
325 325 324 325 327 328 330 330 329 331 333 334 337 338 339 341 342 346 349 350 351 352 352 353 353 354 353 353 353 353 352 352 352 351 351 351 351 350 348 347 346 345 345 345 345 344 343 341 339 335 331 327 325 325 325 325 325 325 325 325 324 325 325 327 329 332 336 341 343 342 341 339 338 338 339 339 340 340 339 338 338 338 338 341 344 346 346 345 344 344 345 347 347 346 348 348 346
323 325 324 324 326 326 327 328 329 329 331 334 336 336 336 340 342 344 349 351 352 352 351 352 353 353 353 353 353 353 352 352 352 351 351 351 351 351 351 350 349 348 346 346 345 345 343 342 341 339 335 330 327 325 325 325 325 325 325 324 324 325 326 327 328 330 334 339 342 342 341 339 339 340 340 340 340 340 340 339 337 336 336 337 340 343 345 345 345 345 345 347 347 348 350 350 347
321 324 325 325 326 326 326 327 328 328 330 332 333 331 332 337 341 342 347 350 351 351 352 351 352 353 352 353 353 352 352 352 352 352 352 351 351 351 351 352 350 348 347 346 346 345 344 344 343 341 338 333 330 327 326 325 325 325 324 325 325 325 326 328 328 329 331 335 338 340 339 338 339 340 341 340 340 340 340 338 336 334 334 335 337 340 343 344 345 345 345 346 347 347 350 351 349
319 322 324 325 327 327 327 327 327 327 327 330 330 327 329 335 338 340 345 349 350 351 352 351 351 352 352 352 352 352 352 352 352 352 352 351 351 351 351 352 350 348 347 346 346 347 347 346 346 344 341 336 332 330 328 327 326 326 325 325 326 326 326 329 329 329 329 331 334 336 337 337 338 339 340 340 339 339 338 337 336 334 333 333 335 338 340 342 345 345 345 345 346 347 347 349 349
318 321 323 324 326 326 327 327 326 325 326 329 329 327 328 331 335 340 344 348 350 350 350 351 351 351 351 351 351 351 352 352 352 352 352 352 351 351 351 351 350 348 348 347 347 348 348 348 348 346 345 341 336 332 331 330 329 327 326 325 326 326 327 327 329 330 330 329 331 334 336 336 337 337 339 340 339 338 337 336 336 334 332 331 333 336 339 341 344 345 345 345 345 346 346 346 348
318 322 324 324 325 326 327 326 326 326 327 328 328 327 325 325 331 339 343 346 350 351 350 350 352 351 350 351 351 351 351 351 352 352 351 352 351 351 350 349 349 349 349 348 348 348 348 348 347 346 345 342 338 335 332 332 331 329 327 327 326 327 327 327 328 331 331 330 331 334 336 336 337 337 337 339 339 338 337 336 336 335 332 331 331 333 337 340 343 344 345 345 345 345 345 345 346
319 324 325 324 326 326 327 326 326 326 326 326 327 327 325 324 329 337 341 343 347 351 351 350 351 352 351 350 350 350 351 351 351 351 351 351 351 350 349 348 348 349 348 348 348 348 348 347 347 346 344 341 339 336 334 333 332 331 330 329 328 328 328 327 327 330 332 332 332 334 336 337 338 337 337 338 340 339 338 337 337 336 334 333 331 331 333 337 340 342 344 345 345 345 346 345 346
320 324 325 325 326 326 327 327 326 326 326 325 326 326 325 325 327 332 339 341 344 349 351 350 352 352 351 351 350 350 350 350 350 351 351 351 351 350 349 349 349 348 348 348 348 348 348 347 348 347 345 342 339 337 335 334 333 332 332 331 330 329 329 328 327 328 330 332 333 334 335 336 337 338 337 338 340 340 339 338 338 338 338 337 335 333 333 335 337 339 342 345 346 346 346 346 346
321 322 325 325 326 326 327 327 326 326 326 326 326 326 326 326 326 329 336 341 343 346 348 349 352 353 352 351 351 350 350 350 350 351 351 351 351 351 350 350 349 348 348 348 348 348 348 348 348 348 347 345 343 341 338 336 335 334 333 332 332 331 330 330 329 327 329 331 333 333 334 334 335 336 338 338 339 340 340 339 339 339 339 339 337 335 334 335 336 338 341 345 346 345 346 346 346
321 321 323 324 325 325 325 325 325 325 325 325 326 326 325 324 327 330 334 339 341 343 345 348 350 352 352 351 351 350 350 350 350 350 350 351 351 351 351 351 350 349 349 348 348 348 348 349 348 348 348 348 347 346 343 340 338 337 336 334 333 332 332 332 331 328 328 329 331 332 333 333 333 334 336 337 338 339 339 339 339 338 338 337 336 336 335 335 336 337 340 344 346 346 346 346 345
321 320 320 321 322 324 323 323 324 323 323 324 325 326 324 324 328 331 333 336 338 340 342 345 348 351 352 352 352 351 350 350 349 349 349 350 351 351 350 350 349 349 349 348 348 349 349 349 349 348 348 348 348 348 347 343 340 338 337 336 334 333 333 334 332 329 329 329 330 331 332 332 333 333 335 336 337 338 338 338 338 337 336 336 336 337 336 335 335 336 339 343 345 345 345 345 346
321 319 319 319 320 322 323 322 323 323 322 322 324 324 323 323 328 331 332 332 336 339 340 344 348 350 351 352 352 351 351 350 350 349 349 349 350 350 350 350 350 349 349 348 349 349 349 349 349 349 349 348 348 349 348 347 343 339 337 337 335 335 334 334 333 332 331 332 332 332 332 332 333 333 334 335 335 336 337 337 337 337 336 336 337 337 336 335 334 335 337 341 344 344 344 345 345
322 322 321 320 319 320 321 321 321 321 320 320 322 323 321 322 327 331 331 331 333 336 338 342 346 348 350 351 352 351 351 350 350 350 349 349 349 348 349 349 349 349 348 349 349 349 349 349 349 349 349 349 349 349 349 348 346 343 341 339 337 336 336 335 334 333 334 335 334 335 334 334 333 333 334 335 335 336 336 337 337 337 336 337 337 337 336 335 334 335 336 338 341 343 344 344 345
324 324 323 321 321 321 321 320 321 320 319 319 321 322 324 325 329 330 329 331 332 333 336 340 343 346 348 349 350 351 351 351 350 350 349 349 349 348 348 349 348 348 349 349 349 349 349 349 349 349 349 349 349 349 349 349 348 346 344 343 341 340 339 338 337 337 337 337 337 337 336 336 335 334 334 335 336 336 336 336 337 336 336 336 336 336 335 334 334 334 335 336 338 341 343 343 344
324 324 322 323 325 324 321 320 323 322 320 321 320 320 323 324 326 328 328 330 331 332 333 336 341 344 347 349 350 350 351 351 350 350 350 349 349 348 348 348 348 348 348 348 348 348 348 348 349 349 349 349 349 349 349 349 349 348 347 346 345 344 343 342 341 340 340 339 339 339 338 338 337 335 334 335 336 336 336 336 336 336 336 335 335 335 334 334 334 334 334 334 335 338 341 342 343
323 322 323 325 326 325 323 322 323 322 321 322 320 318 319 320 323 328 329 329 330 331 331 333 338 342 346 348 348 349 350 350 350 350 350 349 349 348 348 348 347 347 347 347 348 347 348 348 348 348 349 349 349 349 349 349 349 349 348 347 347 346 345 343 342 342 341 340 340 339 339 338 337 336 334 334 335 336 336 336 336 337 336 336 335 334 334 334 334 333 333 334 334 335 338 341 342
323 324 325 325 323 323 324 323 323 322 321 322 320 319 319 319 321 327 330 329 330 332 333 332 335 341 344 345 347 349 349 350 351 350 350 350 349 348 348 348 348 347 347 347 347 347 348 348 348 348 348 347 348 348 349 349 349 349 348 348 347 346 346 345 344 343 342 341 339 339 338 338 337 336 335 334 334 336 337 336 336 336 337 337 336 335 334 335 334 333 333 334 334 335 336 338 340
324 325 326 326 324 323 324 324 323 323 322 322 321 319 319 321 324 326 329 332 331 333 335 335 335 340 343 343 346 348 349 350 350 350 350 350 349 349 348 348 348 348 347 347 347 347 347 348 348 349 348 348 347 347 348 348 349 349 348 348 347 347 347 347 346 344 342 340 338 337 337 337 337 337 336 335 335 335 336 336 336 336 336 336 336 336 335 335 334 333 334 335 335 335 335 336 337
323 323 324 325 325 324 325 324 323 322 323 323 322 320 319 323 328 327 327 331 332 333 337 337 336 338 341 343 345 347 348 349 349 349 350 350 349 349 349 348 348 348 347 347 347 347 348 348 348 348 348 348 347 347 347 347 348 348 348 348 348 348 347 348 347 346 344 341 338 337 337 337 337 337 336 336 336 335 335 336 336 335 335 335 335 335 335 335 334 333 333 335 335 335 335 335 335
319 321 322 323 323 323 323 324 323 322 322 323 323 321 321 325 330 328 326 329 330 333 336 337 337 338 339 342 344 345 346 346 347 348 349 349 349 349 349 349 349 349 348 347 347 348 348 348 348 348 348 348 347 347 347 347 348 348 347 347 348 348 348 348 348 347 346 342 339 337 337 337 337 337 337 337 336 335 335 335 335 335 334 334 334 335 336 336 335 335 334 334 335 335 335 336 335
Wind_Speed
12 13 13 13 14 13 11 8 2 1 2 3 2 2 1 2 2 3 4 5 4 6 8 14 19 14 8 5 7 7 6 5 3 1 3 13 26 27 25 27 27 27 26 24 23 22 20 19 19 18 17 16 15 14 14 14 13 13 13 13 13 13 14 14 15 15 12 10 10 11 11 10 11 11 11 11 10 9 8 7 8 8 9 9 9 9 9 9 9 9 9 10 10 11 11 11 11
13 14 15 14 15 11 7 7 1 1 3 3 2 2 0 3 3 3 6 6 5 8 13 19 18 10 8 10 10 7 6 4 3 5 10 24 31 26 27 27 27 28 25 25 23 22 20 18 18 17 16 14 13 13 13 13 13 13 14 13 13 14 14 15 16 15 13 11 11 12 11 10 10 10 10 10 9 8 8 7 8 8 8 9 9 9 9 9 9 10 10 11 12 12 12 13 13
13 14 16 15 13 7 4 5 2 0 2 3 1 1 1 2 2 3 6 5 9 14 18 20 13 8 11 11 6 3 4 4 7 13 18 27 31 28 29 28 28 27 25 25 23 22 19 17 17 16 14 13 13 13 13 14 14 14 14 14 14 14 14 15 16 14 13 13 12 12 11 10 10 10 10 9 8 8 8 8 8 8 8 8 9 10 9 9 9 10 11 12 13 13 13 13 13
13 13 16 15 10 5 2 3 2 1 2 2 1 1 1 1 3 6 8 9 14 18 20 19 10 6 8 8 5 4 6 5 10 20 24 25 29 32 30 29 29 27 27 25 23 22 19 17 17 16 15 14 13 13 14 15 15 15 15 15 14 15 14 14 15 13 13 14 13 12 11 10 10 10 9 9 8 8 9 8 8 8 8 8 10 10 9 9 10 11 12 11 12 13 12 11 11
13 14 15 12 6 2 2 2 1 2 2 1 1 1 0 2 5 8 9 12 17 18 20 16 7 6 6 7 3 3 8 8 13 21 25 25 30 33 31 31 29 28 27 25 24 22 19 18 17 16 15 15 14 14 15 15 15 14 14 15 14 14 14 13 14 13 13 13 12 11 10 10 10 9 9 9 8 9 9 8 8 8 8 9 10 11 9 8 9 11 12 11 12 12 11 10 10
14 15 14 9 4 3 1 2 1 3 3 2 4 2 1 4 7 10 12 14 16 16 17 12 9 10 8 6 4 5 9 7 15 20 24 30 33 33 32 32 30 28 27 25 24 21 20 18 17 16 16 15 15 15 14 14 13 13 13 14 13 13 13 12 12 12 12 13 12 11 11 10 10 10 10 9 9 9 9 9 9 8 9 9 11 11 10 9 9 11 12 11 11 11 10 10 10
13 13 12 7 6 4 1 2 3 4 3 2 4 2 3 7 10 13 14 15 15 13 12 11 14 12 6 4 4 7 6 4 19 24 27 34 35 33 33 32 30 29 27 26 23 21 20 18 17 16 16 16 15 15 14 13 13 13 13 13 13 13 12 12 12 11 11 13 12 11 11 11 10 11 10 9 9 9 9 9 9 9 9 9 10 11 11 10 10 11 11 11 11 11 10 10 10
11 8 7 5 2 2 2 3 3 3 1 2 3 1 6 10 12 14 14 14 14 13 12 14 14 9 5 5 5 4 3 6 22 29 32 37 35 34 32 31 30 30 28 26 23 21 20 18 17 16 16 16 15 14 13 13 12 12 12 12 12 12 12 12 11 11 11 12 12 11 11 12 11 11 11 9 9 9 9 9 9 9 9 9 10 10 11 11 11 11 11 11 11 10 10 10 11
11 6 3 2 1 1 3 3 3 3 3 4 2 3 8 12 13 13 13 13 14 15 14 15 10 6 7 7 7 4 5 10 25 33 35 37 36 34 32 31 30 30 28 26 24 22 20 18 17 17 16 16 15 14 13 12 12 12 12 11 11 11 12 12 11 11 12 12 11 11 11 12 12 11 10 10 9 9 9 9 9 9 8 9 10 10 11 11 11 10 10 10 10 10 11 11 11
11 6 2 1 1 2 3 2 2 2 3 3 2 6 11 12 12 12 13 13 15 15 13 12 7 9 11 9 7 5 6 16 29 34 35 36 36 35 32 30 29 29 29 26 24 22 20 18 17 17 16 16 15 14 12 12 12 12 11 11 11 11 12 12 11 11 12 12 11 11 11 12 11 11 11 10 10 9 9 9 9 9 8 8 9 10 10 11 11 10 9 9 10 10 11 11 10
6 4 3 1 1 2 2 2 2 2 2 2 2 8 11 12 12 11 12 13 15 14 12 10 9 14 13 8 6 5 9 20 31 33 35 37 35 34 33 30 29 28 28 27 24 22 20 18 17 16 16 16 14 14 13 12 12 12 12 12 11 11 11 11 11 12 12 12 12 12 12 12 12 11 10 10 10 10 10 10 10 9 9 8 9 9 9 10 10 10 9 10 10 11 11 11 10
3 1 2 2 2 2 2 4 4 1 2 4 5 9 11 12 10 10 13 12 13 13 11 9 11 14 10 7 6 8 13 21 30 32 34 37 34 34 32 30 28 28 28 26 24 23 20 18 17 16 16 15 14 13 13 12 12 11 12 11 11 11 11 11 12 12 13 13 13 12 12 12 12 11 11 11 11 10 11 11 11 10 9 9 9 9 9 9 10 10 9 10 11 12 11 10 9
3 1 1 2 2 3 4 5 3 1 3 4 6 8 11 12 9 10 12 12 13 12 9 10 14 12 7 8 9 12 16 22 30 30 33 36 35 34 32 30 28 28 27 26 25 23 20 18 17 17 16 15 14 13 13 12 12 11 12 11 11 11 11 12 12 13 13 13 13 13 13 12 13 12 12 12 12 11 11 11 11 10 9 9 9 9 9 9 10 10 10 10 11 11 11 10 10
5 2 2 2 2 4 5 4 2 2 2 4 7 9 10 9 8 11 12 12 10 8 9 12 16 11 8 11 10 15 19 24 30 28 31 35 35 34 32 30 28 28 26 25 25 23 20 18 18 17 16 15 14 13 13 13 12 12 12 12 11 12 12 13 13 12 12 13 13 13 13 13 13 13 13 13 13 13 12 11 11 11 10 9 10 10 10 10 10 10 10 10 10 10 10 10 10
7 3 2 2 3 3 4 3 1 2 2 5 8 10 9 6 8 10 10 11 6 8 12 13 15 8 8 13 12 20 24 27 30 27 31 35 36 34 32 30 28 28 26 25 24 22 20 19 19 18 16 15 14 14 13 13 13 12 12 12 12 12 13 13 13 12 12 13 13 13 14 13 13 13 13 13 14 14 13 12 11 11 10 10 10 10 10 9 10 10 10 9 9 10 10 10 9
7 3 1 3 3 2 2 2 1 1 2 6 9 11 10 6 7 8 8 10 9 11 10 10 13 4 7 15 16 25 28 29 30 28 31 35 35 32 30 29 27 27 25 24 23 21 20 20 20 18 17 16 15 15 14 14 13 13 13 13 13 13 13 13 13 13 13 13 13 14 14 13 13 12 13 13 13 14 13 12 11 11 10 10 10 10 10 10 10 10 10 10 9 10 10 9 9
5 3 2 3 3 2 2 2 1 1 3 7 11 13 11 7 6 8 9 10 13 13 6 7 10 3 7 14 19 28 30 31 32 29 31 33 31 29 30 28 26 26 24 23 22 20 20 20 21 18 17 17 16 16 15 14 14 13 13 13 14 14 14 14 14 13 13 13 12 13 13 13 12 12 12 12 12 12 12 12 11 11 10 10 10 10 11 10 10 10 10 10 10 9 9 9 9
4 3 3 4 4 3 2 1 2 2 3 9 12 14 12 10 9 11 11 10 14 12 7 8 7 3 9 14 21 29 30 33 34 32 32 31 29 29 31 28 27 26 23 23 21 21 20 20 21 19 17 17 17 16 16 15 14 14 14 15 14 14 15 14 14 13 13 12 12 12 12 12 12 11 11 11 11 10 11 11 10 10 10 10 10 10 10 10 10 10 11 10 10 10 9 9 9
6 3 3 5 3 2 2 3 3 3 1 8 12 13 11 11 13 13 9 11 14 11 8 10 11 10 13 17 24 30 31 33 33 33 33 31 30 30 30 29 29 27 24 23 22 21 21 20 21 19 18 18 17 17 16 15 14 15 15 16 16 15 15 14 14 14 13 12 11 11 11 11 10 10 10 10 10 10 10 9 9 9 9 9 10 10 10 10 10 10 11 11 11 10 10 10 10
8 5 5 5 4 4 4 6 6 5 2 8 12 11 10 11 14 13 9 12 13 10 12 14 14 17 19 22 27 30 32 33 33 33 33 32 30 28 28 29 29 28 26 24 23 23 22 21 21 20 18 18 17 17 17 15 15 16 16 17 16 16 15 15 14 14 14 13 12 11 10 9 9 9 9 9 9 9 9 9 8 8 8 8 9 9 10 10 10 10 11 11 11 11 10 10 11
7 8 5 2 2 4 3 4 3 3 3 7 11 10 9 11 13 12 12 12 9 12 17 18 20 23 25 27 29 31 32 32 32 31 33 33 30 27 26 28 26 26 27 24 24 25 24 23 22 20 19 18 18 18 17 16 16 17 17 17 17 16 16 15 15 15 14 13 12 10 10 9 8 8 8 8 9 9 9 9 8 9 9 9 8 9 9 9 10 10 11 11 11 11 11 11 11
6 9 8 5 3 4 4 3 4 4 2 7 10 10 9 11 11 13 17 12 6 12 17 19 23 26 28 31 32 33 33 33 33 32 32 32 30 28 27 27 25 24 26 24 24 26 25 24 23 21 19 19 18 18 17 16 17 17 17 18 17 17 16 16 15 14 14 12 11 9 9 8 7 7 7 8 9 9 9 8 8 9 9 9 9 10 10 10 10 10 10 11 11 11 10 10 10
7 8 9 10 8 8 9 7 4 5 1 6 9 9 10 11 10 14 19 12 4 9 16 19 22 25 28 32 34 34 35 34 34 33 32 32 32 30 28 27 24 24 26 24 24 26 26 25 24 22 20 20 19 19 18 16 16 16 17 17 17 17 17 16 15 14 13 11 9 8 8 7 7 7 7 8 8 9 9 8 7 7 7 8 9 10 10 10 10 10 10 10 10 10 9 9 9
9 7 7 9 9 11 13 12 12 9 4 5 6 9 11 13 9 12 18 12 4 8 16 21 22 25 29 32 35 35 35 34 32 32 31 30 32 30 27 26 24 24 25 23 23 27 27 25 25 24 22 21 20 20 19 17 17 17 17 17 17 17 17 16 14 14 12 11 9 8 8 7 7 7 8 8 8 8 8 8 7 6 6 6 7 8 8 8 8 8 8 8 9 8 8 8 9
13 10 6 7 9 10 11 11 13 11 7 5 7 10 12 15 9 10 16 11 8 10 16 22 25 28 31 34 35 34 33 33 32 31 30 29 29 29 26 25 24 24 25 25 25 28 28 26 25 24 22 22 21 21 20 19 18 18 18 18 18 17 16 15 14 13 12 11 9 8 8 8 8 8 8 8 8 8 8 8 6 5 5 5 5 5 5 6 5 5 5 6 6 7 7 7 8
12 14 9 8 9 9 10 11 12 9 7 5 8 9 11 14 8 7 15 14 12 14 19 25 28 31 31 34 36 35 34 34 33 32 30 28 28 28 27 25 26 27 27 26 27 29 29 27 26 23 22 22 22 22 22 21 20 19 19 18 18 17 16 15 13 13 12 11 10 9 9 9 9 9 8 8 8 8 8 7 7 6 5 5 4 4 4 4 3 3 2 3 4 4 4 5 6
6 13 14 15 16 15 14 14 14 11 9 8 9 10 8 13 10 6 12 18 17 19 23 27 30 32 31 33 34 34 34 34 33 32 30 29 28 29 28 27 28 29 28 26 27 30 30 28 26 24 23 22 22 22 22 21 20 20 19 19 18 17 16 15 14 13 12 11 10 9 9 9 9 9 8 8 8 7 7 7 6 6 6 5 5 5 4 4 3 3 3 2 2 2 2 3 3
4 6 9 14 16 17 16 15 15 11 8 9 10 9 6 11 11 8 14 21 22 24 26 28 30 30 30 32 32 31 32 33 31 31 33 34 33 33 33 33 33 32 31 29 28 30 31 29 27 25 24 22 22 22 22 21 21 20 19 19 18 17 16 15 14 14 13 11 10 10 10 10 9 9 8 7 7 7 6 6 5 5 5 5 5 5 4 4 3 2 3 3 3 3 3 3 2
9 6 7 10 10 13 14 13 12 8 6 6 7 6 5 11 11 9 19 23 23 25 26 27 28 28 29 30 30 29 31 32 31 32 35 35 33 34 37 39 38 36 32 30 29 30 31 30 29 27 25 24 23 22 22 22 21 20 19 19 18 18 16 15 14 14 13 12 10 10 10 10 9 8 8 7 7 6 6 6 5 5 5 5 4 4 3 3 3 2 3 3 4 4 4 5 3
10 8 7 7 8 9 7 9 10 9 8 7 8 4 5 11 12 12 21 24 24 24 25 26 26 26 27 29 29 29 30 32 33 33 34 34 33 36 40 40 40 38 33 31 30 31 32 31 30 29 27 25 24 23 23 22 21 20 19 19 18 18 17 15 14 13 13 12 11 11 11 9 9 9 8 7 7 6 6 6 5 5 4 5 4 3 3 3 3 3 3 3 3 4 4 5 5
8 6 6 5 6 5 3 3 8 9 7 11 11 5 5 7 11 16 22 26 26 23 24 25 25 26 27 29 29 29 31 33 35 34 34 36 35 37 40 38 39 40 35 33 33 33 32 32 32 30 29 27 26 25 24 22 21 20 19 18 18 18 17 15 14 13 13 13 12 12 11 9 9 9 8 7 6 6 5 5 5 4 3 3 3 3 2 2 2 2 2 3 3 3 4 5 6
5 5 5 6 6 7 5 3 7 8 5 14 13 5 5 4 9 18 23 27 27 23 24 24 25 27 27 28 29 29 31 32 34 34 34 37 35 34 40 40 39 40 38 36 35 33 32 33 33 32 30 29 27 26 24 23 21 20 18 18 18 17 16 16 15 14 13 13 13 12 11 9 9 9 8 6 5 5 5 4 4 4 3 3 3 3 2 2 1 1 2 2 2 2 3 4 5
5 6 6 6 8 8 7 3 8 10 5 12 14 6 4 2 10 20 23 26 26 23 24 25 25 27 28 28 29 29 30 31 32 33 34 38 37 36 41 42 40 40 39 37 35 34 33 33 33 32 31 30 28 27 25 24 22 20 18 17 17 17 16 16 15 15 14 14 14 13 12 10 9 8 7 6 5 4 4 4 4 4 3 3 3 3 2 1 1 1 2 1 2 2 3 3 4
5 7 6 5 8 10 7 2 6 11 8 10 13 10 7 2 9 18 23 26 26 23 24 26 26 26 27 28 28 29 31 32 33 34 35 39 41 42 43 42 42 40 39 38 36 34 34 34 34 33 32 31 30 28 26 24 23 21 20 18 17 17 17 16 15 15 15 15 14 13 12 11 9 8 7 5 5 4 4 5 4 4 3 3 2 2 2 1 0 1 1 2 3 3 3 3 3
8 8 6 5 8 10 9 4 2 8 10 11 12 13 12 4 7 15 22 26 26 24 25 26 26 26 26 27 28 30 31 33 34 35 36 38 40 43 44 42 42 41 39 38 37 36 35 34 34 34 34 33 31 29 28 26 24 23 21 20 18 18 17 17 16 16 15 15 15 14 13 12 11 9 8 6 5 5 4 4 4 3 3 3 2 1 1 1 1 1 2 2 3 3 3 3 2
7 8 7 7 8 8 8 6 2 4 7 10 12 12 12 9 8 13 19 25 25 23 22 23 24 25 25 26 27 29 31 32 33 34 35 37 40 43 44 43 42 42 40 39 38 38 37 36 36 35 35 34 33 31 30 28 27 25 24 22 21 19 18 18 17 16 16 16 15 15 14 13 12 10 9 8 6 6 4 4 3 2 2 3 2 1 1 2 2 2 2 3 4 3 3 3 3
2 6 8 8 9 9 6 6 4 3 5 8 11 11 13 13 10 12 17 21 20 19 20 21 23 25 26 27 28 29 30 30 30 31 34 36 38 41 43 43 42 42 41 40 39 39 38 38 38 37 36 35 35 34 32 31 30 28 26 25 23 21 20 19 18 17 17 17 16 15 14 14 13 11 10 9 8 7 6 4 4 3 3 3 2 2 2 4 4 3 3 3 4 4 4 2 2
5 4 6 7 9 9 5 4 4 4 5 7 9 11 14 13 11 11 15 17 18 20 22 22 25 26 26 28 29 29 27 26 26 28 32 33 33 37 42 43 43 44 42 41 40 39 39 39 39 39 38 37 36 35 34 33 31 29 27 25 23 22 21 20 19 19 18 17 17 16 15 14 14 12 10 10 9 8 7 6 5 4 4 3 3 3 3 4 4 4 4 3 3 4 4 3 2
10 5 4 5 5 5 7 6 5 5 5 6 7 9 12 12 11 11 15 17 20 25 26 27 29 28 27 29 29 28 27 27 28 30 32 33 32 34 37 37 38 41 42 41 40 39 39 39 40 40 40 40 38 37 36 34 32 30 28 25 24 23 23 22 21 20 18 18 18 17 16 15 14 12 11 10 9 8 8 7 7 6 5 5 4 4 4 4 4 4 4 4 4 3 4 4 3
12 8 6 5 4 4 6 4 2 4 6 7 6 7 9 9 8 10 17 21 21 23 25 25 27 29 30 30 29 29 30 31 31 31 33 34 34 34 34 32 33 37 41 41 40 40 40 40 40 41 41 41 40 39 37 35 33 31 29 27 25 24 24 23 23 21 20 19 19 18 17 16 14 13 12 10 9 8 8 7 7 7 7 7 6 5 4 4 4 3 4 4 5 4 4 4 4
12 13 11 7 6 7 5 1 3 4 7 9 6 6 8 7 8 8 13 18 17 18 20 20 21 25 24 24 26 28 31 33 33 33 35 36 37 37 36 33 33 39 43 43 41 41 41 40 40 40 40 41 41 40 38 37 35 33 31 30 28 27 26 25 25 24 22 21 20 20 19 17 15 14 13 11 10 9 8 8 8 8 8 8 8 7 5 4 4 4 4 4 4 5 5 4 4
10 15 16 13 9 8 7 7 6 5 6 6 6 8 7 6 10 10 9 12 15 16 18 21 22 22 21 23 26 29 29 32 34 36 37 36 36 36 37 36 38 43 45 43 41 40 40 40 39 39 40 41 42 41 40 39 38 36 34 33 31 29 28 27 25 25 24 23 22 21 19 18 16 15 14 13 11 10 9 8 8 9 9 9 9 8 6 5 4 4 4 4 4 5 6 5 4
8 11 15 15 12 10 10 9 6 5 4 1 3 8 6 3 7 10 10 13 16 16 16 21 24 23 24 27 27 29 30 31 32 34 35 36 37 38 40 43 45 46 45 43 42 40 40 40 39 39 39 41 42 42 42 40 39 38 36 34 33 31 30 28 25 24 24 23 22 21 20 19 17 16 15 14 13 11 10 9 9 9 9 10 10 9 7 6 5 5 5 5 5 6 6 6 5
8 6 9 13 14 13 13 11 8 6 6 6 6 6 6 6 5 6 10 13 15 16 17 19 22 24 27 28 28 30 32 33 33 34 36 38 40 43 46 47 47 45 44 43 42 41 40 39 39 37 38 40 41 42 42 41 41 40 38 36 35 33 32 29 26 24 24 23 23 22 21 20 18 16 16 15 14 13 11 11 10 9 9 10 10 10 8 7 6 6 6 5 5 6 6 6 6
6 5 8 11 14 15 13 10 9 7 6 9 8 5 5 8 4 3 8 13 13 15 18 18 21 26 28 29 29 30 32 33 34 36 38 40 43 47 49 48 46 44 44 43 42 41 40 38 37 36 36 38 40 42 42 41 41 40 39 38 37 35 34 31 29 27 25 24 24 23 22 20 18 17 16 16 16 15 13 12 11 10 10 10 10 10 9 8 8 8 7 6 6 6 7 7 7
5 5 7 9 12 13 12 10 8 8 9 11 10 7 6 8 6 5 7 10 13 14 15 16 20 26 29 29 30 30 31 32 34 36 38 41 44 47 46 44 45 45 45 44 42 40 39 38 37 37 36 36 38 40 41 41 41 40 40 40 39 37 36 34 32 29 27 25 25 24 23 21 19 18 17 17 17 16 15 14 13 12 10 9 10 10 10 10 9 9 8 7 7 7 8 8 8
7 7 6 6 8 8 8 8 6 8 10 12 13 11 8 9 7 8 8 7 9 11 12 14 19 24 27 28 29 29 29 31 33 35 36 38 40 41 40 42 45 46 45 45 43 41 39 38 38 38 37 36 37 38 40 41 41 41 41 40 40 38 37 36 34 33 30 28 27 25 24 22 20 19 18 18 18 17 16 15 14 13 12 11 10 10 10 10 10 10 9 9 8 8 8 8 9
10 9 8 4 4 5 5 6 6 10 10 9 13 13 11 12 8 7 9 9 11 12 12 13 17 23 27 28 28 30 30 32 33 33 34 34 36 37 39 42 45 47 47 47 45 43 41 39 38 38 38 37 37 37 37 39 40 40 41 40 40 39 38 37 35 34 32 30 29 27 25 23 22 21 20 19 19 18 17 17 16 15 14 13 12 11 10 10 11 11 11 10 9 9 9 9 9
11 10 9 7 5 5 7 7 7 10 8 5 9 11 12 13 9 7 9 9 12 14 14 15 18 23 27 29 30 31 31 32 32 33 33 34 38 41 43 44 47 49 49 48 46 44 44 42 40 39 38 38 37 37 37 37 38 39 39 40 40 39 38 37 36 35 34 32 30 29 27 25 24 23 22 20 19 19 18 17 17 16 15 14 13 12 11 11 11 12 12 11 10 10 9 9 9
12 11 10 10 8 6 9 8 7 8 6 4 6 7 9 11 8 10 13 12 15 17 17 18 20 24 27 30 31 31 31 32 33 34 34 36 41 46 47 48 49 50 49 48 47 46 46 45 43 41 40 38 37 37 36 36 37 37 37 38 39 39 39 38 37 36 35 33 31 30 28 27 26 24 22 20 18 18 18 17 17 17 16 15 14 13 12 12 12 13 13 12 11 11 10 10 9
11 12 10 10 9 8 8 7 7 7 4 6 9 6 7 7 2 5 11 15 19 21 20 20 20 24 27 28 30 30 31 31 32 34 36 39 44 48 48 48 50 51 49 49 48 48 48 47 45 43 42 41 39 38 37 36 36 36 36 36 37 37 37 38 37 37 35 34 32 30 28 27 26 25 22 20 18 18 18 17 17 17 17 16 15 14 14 13 13 14 14 13 12 12 11 11 10
10 11 11 11 10 8 5 5 5 5 5 6 8 5 3 3 4 2 5 9 15 20 23 23 22 23 24 23 26 29 30 31 31 33 36 40 44 47 48 48 50 50 49 50 50 50 50 48 47 45 43 42 41 40 39 37 35 35 35 36 35 35 35 36 36 36 35 34 32 30 28 27 26 25 23 21 20 19 18 18 17 17 17 17 16 16 15 15 15 15 15 14 13 13 12 12 11
6 10 12 10 9 8 6 5 2 3 7 6 6 7 5 4 9 9 7 6 9 14 17 20 22 22 22 22 25 29 30 32 33 35 39 42 45 48 49 49 50 50 50 51 52 50 49 48 47 46 45 44 42 41 40 38 36 35 35 35 35 35 35 35 35 35 34 33 32 30 29 27 26 26 25 23 22 20 19 18 18 18 18 17 17 17 17 16 16 16 16 15 15 14 13 13 12
4 9 11 8 8 9 8 6 5 6 9 5 6 10 9 7 7 7 11 11 10 11 12 16 19 19 21 23 26 30 33 34 36 39 43 45 47 48 49 49 50 52 52 52 51 50 48 47 46 46 46 45 44 42 41 39 38 36 35 34 34 33 33 33 33 34 34 33 31 30 29 28 27 26 26 24 23 21 20 19 19 19 19 19 18 18 18 18 17 17 17 16 16 15 15 14 13
9 6 8 8 8 10 8 7 7 9 9 6 6 8 9 10 7 5 11 14 13 12 11 13 15 17 21 24 26 30 32 33 35 38 40 43 46 48 49 49 49 51 52 52 51 49 48 48 47 47 46 44 43 42 42 41 39 38 36 34 33 32 31 31 31 32 32 32 31 29 29 28 27 26 26 25 24 23 21 20 19 19 19 19 19 19 20 19 19 19 18 17 17 16 16 15 14
11 7 7 8 7 7 9 8 6 6 7 6 6 7 8 9 7 7 9 12 13 13 10 10 12 17 22 24 25 28 30 32 34 37 38 42 47 48 50 51 50 50 52 52 50 49 49 49 49 48 47 45 44 43 42 41 40 39 37 35 34 33 32 30 30 30 30 30 30 29 28 27 27 27 26 25 25 24 23 21 20 19 19 20 20 20 21 21 20 20 19 18 18 17 17 16 15
8 8 9 10 7 4 6 8 8 7 7 6 6 7 7 5 5 10 12 11 12 12 9 8 12 19 23 24 25 28 31 35 39 40 40 43 48 48 49 51 49 47 48 50 49 49 50 49 50 50 48 47 46 44 43 42 41 40 38 36 35 34 32 31 30 29 29 29 29 28 28 27 27 27 27 26 26 25 24 22 21 20 20 20 20 20 21 22 22 21 20 20 19 19 18 18 17
2 4 5 7 6 5 8 10 10 9 8 6 6 7 6 2 3 8 13 13 13 14 12 10 13 19 23 24 26 30 35 39 42 43 41 43 47 48 47 48 45 42 45 49 49 49 50 51 51 51 50 49 47 45 45 43 42 41 39 36 35 34 34 33 32 30 29 29 29 28 27 27 26 27 27 27 26 26 25 24 23 22 21 20 20 20 21 22 22 22 21 21 20 20 19 19 18
Wind_Direction
155 152 149 153 156 152 155 162 183 194 231 275 260 266 224 171 145 148 150 144 149 154 143 135 142 143 133 140 141 95 75 139 139 97 115 136 152 157 154 153 153 151 147 143 140 136 137 142 143 142 142 142 142 140 140 139 139 139 138 137 135 134 132 129 129 135 141 142 136 129 132 137 133 132 130 127 126 125 122 116 110 106 101 92 83 77 79 92 96 93 95 95 98 100 102 103 101
160 152 148 149 151 147 159 184 239 177 223 285 256 259 90 132 168 178 167 159 147 146 141 136 137 138 128 125 129 104 78 90 97 103 119 141 150 156 156 153 155 153 149 146 140 138 140 144 142 141 141 137 134 131 131 131 130 130 130 129 127 125 126 130 134 138 136 133 128 126 133 135 133 132 130 129 130 130 124 118 113 109 103 97 88 77 80 93 92 92 97 98 100 100 101 102 101
166 157 154 149 153 162 158 182 256 287 253 298 313 150 153 164 181 154 154 145 134 140 140 138 128 120 129 130 134 106 93 98 124 125 131 147 153 156 157 155 156 153 149 146 141 140 141 145 142 137 135 129 126 124 123 123 122 122 123 123 122 122 127 130 129 131 129 126 125 128 134 131 131 133 132 134 132 128 121 116 116 112 105 102 93 77 82 95 90 94 99 100 102 101 101 102 104
169 162 160 151 152 187 163 174 257 262 270 288 323 111 204 208 145 128 133 134 138 142 143 141 120 118 139 133 122 87 113 128 143 141 142 153 157 156 156 157 157 153 150 146 143 141 143 147 142 135 134 129 128 125 123 121 120 120 121 123 123 125 127 125 122 125 126 123 124 129 132 130 133 135 133 131 125 120 119 117 117 114 109 108 99 83 85 97 90 94 99 99 100 99 98 101 105
162 158 163 154 148 213 205 205 228 237 272 300 301 48 173 172 137 130 132 141 146 147 150 145 114 123 124 110 89 87 127 131 150 151 148 155 158 156 156 158 158 155 151 148 146 143 145 147 140 139 137 134 134 130 127 124 122 122 123 124 125 126 124 123 121 119 121 121 126 130 130 129 130 128 122 121 118 116 117 117 118 118 115 111 103 91 90 98 92 91 95 97 97 97 101 103 102
156 156 169 180 217 245 232 229 241 252 285 291 275 336 108 155 142 135 135 142 147 149 152 144 123 127 106 84 43 107 132 136 158 157 152 156 158 157 157 159 158 156 153 151 149 144 145 145 141 142 140 138 136 132 130 127 125 124 124 125 125 124 121 122 119 118 123 123 124 128 129 126 124 121 116 117 115 115 117 118 120 120 116 113 107 99 95 100 93 87 91 95 95 96 99 98 95
155 155 176 210 243 234 253 270 275 272 295 265 266 305 148 150 144 138 137 142 146 150 151 140 132 125 103 105 79 116 136 154 163 159 156 157 158 158 159 160 159 157 155 154 150 144 144 143 143 144 142 140 137 133 131 129 127 126 125 124 124 121 121 121 118 120 122 119 119 124 124 120 119 117 113 111 110 113 117 118 120 120 116 114 111 103 98 102 98 91 93 95 93 96 97 97 96
163 163 187 222 260 234 281 287 284 275 287 252 266 262 152 148 147 143 142 148 152 156 152 146 143 121 103 134 110 133 140 155 164 159 157 158 158 159 160 161 160 158 156 155 150 144 144 144 145 145 143 140 137 133 130 131 129 127 126 124 123 121 122 121 118 118 115 113 117 119 116 115 113 111 109 107 107 109 111 113 118 120 118 117 114 106 99 103 107 103 101 98 96 101 107 109 107
183 189 190 231 300 300 292 284 284 264 258 257 252 172 152 149 149 146 147 150 155 157 154 156 160 132 122 124 112 136 139 158 164 158 158 159 159 161 162 163 162 160 158 156 152 145 144 147 148 147 145 141 136 133 131 133 131 129 129 127 125 120 119 118 117 115 112 112 113 111 109 110 108 107 107 106 105 103 104 107 110 114 116 116 113 107 101 103 109 110 105 99 96 100 106 109 107
193 208 207 233 275 290 291 278 270 262 248 244 213 164 155 153 151 148 148 149 155 154 150 151 140 128 132 119 113 141 150 162 163 157 160 160 161 162 163 164 164 161 159 158 154 148 146 149 151 149 146 141 137 135 135 135 133 132 130 129 125 120 119 119 119 114 112 111 109 109 107 106 105 104 105 105 102 100 103 102 103 106 110 109 107 106 102 101 106 109 103 95 91 91 96 100 98
194 217 231 242 275 276 286 295 284 295 209 195 161 161 158 154 151 147 143 142 152 147 144 145 123 125 128 115 117 146 153 163 164 159 161 162 162 164 164 164 164 162 160 160 157 150 147 150 152 151 147 142 139 137 137 137 136 133 129 127 124 122 121 118 117 114 113 112 111 111 110 107 105 104 103 102 99 99 101 99 99 103 109 108 105 106 102 99 101 104 97 87 84 84 86 90 89
195 205 228 272 275 265 279 297 302 328 163 182 160 160 162 158 151 147 144 140 148 145 150 160 143 133 123 118 130 146 154 164 165 160 161 163 163 164 165 165 164 163 162 161 159 152 148 152 154 151 148 144 142 139 139 141 137 133 130 126 125 124 121 118 116 115 114 113 112 110 108 106 103 102 99 98 96 96 97 99 100 102 107 110 106 104 102 98 97 99 93 85 83 82 82 82 82
211 169 212 290 265 271 285 287 296 217 164 176 161 158 163 163 155 150 144 138 148 150 158 166 151 136 115 126 139 151 158 165 165 161 161 163 164 165 167 166 164 163 163 163 161 155 150 154 156 151 150 146 143 140 141 141 135 133 132 129 129 125 121 119 118 116 115 113 110 107 104 103 102 99 97 96 94 93 94 94 97 98 101 104 105 105 105 100 94 95 93 89 86 86 85 82 82
211 187 231 286 273 278 275 265 265 224 164 141 148 153 161 158 147 150 146 141 148 149 150 160 154 134 117 133 145 159 163 166 164 160 162 164 165 166 168 167 165 164 164 165 163 158 153 156 157 153 151 148 144 143 143 140 135 134 133 134 132 127 124 122 119 116 115 113 108 107 105 103 101 98 97 97 95 95 94 93 94 93 94 95 100 105 107 103 95 95 95 92 89 90 90 85 84
210 190 240 264 282 277 249 247 273 237 145 139 149 148 145 127 134 146 152 147 136 145 146 157 165 149 151 163 167 170 168 165 164 160 162 165 166 167 169 167 166 165 166 166 165 160 156 158 157 154 153 150 148 145 143 140 136 136 135 137 133 129 128 124 121 118 116 113 110 110 107 104 101 99 99 97 97 97 96 93 92 90 93 95 96 99 102 102 97 96 96 93 93 96 95 90 87
212 199 259 257 264 272 229 222 234 231 138 147 151 149 135 115 138 143 156 150 125 149 153 160 178 187 179 178 172 169 166 163 163 162 162 165 167 167 168 168 167 167 168 168 166 163 160 160 158 156 156 154 151 147 143 141 138 138 137 138 135 130 129 127 125 123 121 117 116 113 110 107 103 100 99 99 99 99 98 95 92 91 93 95 93 93 96 99 99 98 98 98 100 101 97 92 89
209 205 244 248 241 255 243 219 228 49 131 154 160 163 149 129 144 135 146 149 135 150 148 148 179 204 179 179 169 165 162 161 164 163 162 165 165 167 169 169 169 168 170 170 168 167 163 163 161 158 160 157 154 150 144 143 141 140 140 139 136 132 131 129 128 126 125 121 119 116 114 111 105 103 101 101 101 99 100 97 92 90 90 94 93 93 94 96 99 101 103 103 103 100 97 92 89
197 200 230 242 237 233 237 249 4 14 157 165 173 177 163 146 148 137 135 141 140 145 131 130 148 158 169 168 162 161 161 162 165 164 164 166 166 169 172 170 171 170 171 173 172 171 167 165 163 160 161 159 157 153 147 147 144 143 143 141 138 135 133 131 131 129 126 123 119 116 115 113 110 109 106 103 102 99 99 95 90 86 85 89 94 97 97 96 99 105 109 108 107 102 97 91 85
201 205 233 233 225 206 240 289 328 323 203 166 177 184 175 157 150 152 147 149 150 144 138 135 119 122 147 151 155 159 161 164 166 166 166 168 169 170 172 171 173 173 173 176 177 175 171 168 166 163 164 162 159 155 151 150 148 147 146 144 142 139 137 135 134 131 127 123 118 116 113 112 111 108 107 105 103 102 102 101 98 93 89 88 92 98 100 101 102 109 113 111 109 105 98 91 86
204 214 239 237 246 254 259 279 279 289 259 175 177 178 180 164 152 162 159 156 166 164 158 154 139 136 144 149 156 160 162 166 168 168 169 170 171 172 173 173 174 174 175 179 180 180 176 171 168 166 166 164 161 158 155 155 154 153 150 148 146 143 141 138 135 132 129 125 122 120 116 114 111 108 109 108 103 101 103 108 108 101 98 94 95 101 102 104 104 109 112 110 108 105 99 92 86
193 209 234 224 253 264 272 312 294 270 229 179 169 171 177 167 161 166 158 158 185 193 179 170 160 150 150 155 159 163 164 168 170 170 171 172 173 173 175 175 175 176 177 181 183 183 180 176 172 169 169 167 166 163 160 161 160 157 155 153 149 147 145 141 139 137 133 130 129 127 124 119 113 112 115 113 106 102 104 108 108 103 103 104 105 109 110 108 107 110 111 110 110 107 100 91 84
205 222 241 245 271 298 307 360 53 59 144 158 161 175 169 162 173 176 173 179 200 199 187 177 171 162 158 160 161 165 168 169 171 173 173 174 174 174 176 177 176 178 180 182 185 186 183 180 176 172 172 172 171 167 164 165 163 159 159 157 152 150 148 146 145 142 138 135 134 132 129 123 118 118 117 116 114 110 107 105 104 103 107 111 113 116 117 116 114 114 113 114 112 107 98 89 82
229 234 246 251 259 275 282 297 337 6 98 163 170 178 162 165 188 190 192 202 195 184 180 174 179 175 164 161 163 168 171 172 173 175 175 176 176 176 177 178 178 180 183 183 186 187 184 183 181 177 176 176 174 170 168 168 166 163 162 159 156 154 152 153 152 149 145 141 139 136 133 129 126 125 124 125 123 120 114 109 107 106 111 116 118 119 120 120 118 117 116 115 112 107 100 91 83
236 250 257 257 258 262 272 289 297 305 277 221 189 175 173 184 194 191 201 212 179 177 184 181 179 174 166 163 167 170 172 174 175 176 178 178 179 179 179 180 180 182 184 185 187 188 186 185 184 183 180 179 177 174 172 171 169 167 164 162 160 158 158 160 160 157 152 147 146 143 140 135 132 132 135 136 132 128 122 118 114 111 115 121 126 127 127 126 122 118 117 116 113 108 103 98 90
232 246 261 265 262 265 274 287 290 293 283 246 195 190 195 196 189 184 203 204 171 178 184 181 174 169 169 168 170 172 172 175 176 178 180 181 181 180 182 184 183 184 186 187 189 188 188 187 186 186 184 181 179 177 175 173 172 171 168 165 163 162 163 166 167 163 157 154 153 151 148 141 137 136 141 146 142 136 130 126 123 116 115 119 129 138 140 140 135 127 119 118 116 110 105 100 94
225 237 253 271 270 273 280 284 285 292 288 241 204 221 215 195 190 195 199 186 170 175 175 174 173 170 171 171 172 173 174 176 177 179 181 183 183 183 184 186 187 187 188 189 191 189 188 189 187 187 186 183 181 179 177 175 175 174 171 167 165 165 166 169 170 166 162 159 158 157 156 149 144 143 147 151 148 143 138 134 131 125 120 121 131 144 158 164 163 162 149 134 127 120 112 104 97
223 238 251 262 270 274 275 276 275 283 284 256 236 251 227 188 198 214 182 175 171 165 165 171 172 172 173 174 175 176 177 178 178 178 181 184 186 187 187 188 189 190 191 191 192 191 189 189 189 187 187 185 183 180 177 176 176 176 174 170 167 167 169 170 170 169 167 165 164 163 162 156 151 148 151 153 149 146 144 140 135 130 131 134 137 146 161 174 184 203 213 204 192 173 158 128 105
249 252 259 261 268 272 266 263 265 269 276 255 237 254 226 184 210 217 166 167 171 162 161 168 171 172 174 175 175 178 180 179 180 181 185 188 189 191 191 191 192 192 194 195 195 193 190 190 189 188 186 185 184 181 178 176 177 177 176 173 170 170 173 174 173 173 172 171 172 169 168 165 159 155 155 156 152 148 149 146 140 138 141 143 145 151 160 168 174 198 218 230 238 227 218 205 179
251 267 277 277 276 273 258 249 252 246 256 242 214 241 218 194 216 194 162 165 167 163 162 167 171 172 174 175 177 180 182 181 185 188 189 190 191 193 194 195 195 195 196 198 197 195 192 190 190 189 186 185 183 181 179 177 177 178 178 175 172 174 176 178 178 177 177 178 177 174 174 174 169 164 161 161 157 154 155 149 146 146 147 147 147 150 159 165 169 189 210 227 244 247 241 227 218
240 254 265 286 284 273 247 235 235 227 240 206 178 239 234 206 209 172 162 166 163 163 166 169 171 172 174 178 180 184 185 185 189 192 192 193 194 195 196 198 198 198 198 198 200 198 194 191 191 190 187 185 184 182 180 177 176 176 178 176 175 177 179 180 180 180 182 181 179 177 179 181 177 173 169 166 163 159 155 148 150 154 149 148 150 151 158 165 179 199 215 223 231 243 245 236 229
218 232 241 258 264 256 193 195 213 211 214 186 182 247 253 209 195 172 166 169 166 167 171 172 173 173 176 181 184 187 189 191 194 193 194 195 196 198 199 200 200 202 201 201 202 200 196 194 193 192 189 187 186 184 182 179 177 176 177 177 178 181 183 184 184 186 187 186 183 181 182 183 181 177 173 169 165 164 159 152 155 164 160 153 158 165 166 165 179 207 221 220 230 244 254 247 235
201 207 220 220 236 254 235 197 206 211 187 181 191 242 256 220 178 172 171 172 171 172 175 175 176 175 179 183 186 190 192 196 197 195 197 197 197 199 201 202 202 204 205 205 204 202 199 197 195 194 192 190 189 188 186 183 182 180 180 179 181 184 186 187 189 192 195 193 189 187 187 185 183 181 179 175 167 167 167 166 175 181 174 156 149 152 152 149 171 240 236 228 254 267 272 267 250
204 211 221 201 207 242 244 208 212 219 182 181 200 240 270 212 167 172 173 176 175 174 177 179 179 178 181 186 188 190 192 196 198 198 199 200 201 202 204 206 206 206 207 207 206 204 201 200 198 197 196 195 193 192 190 188 187 186 186 185 187 188 189 190 192 196 199 200 196 193 192 189 188 189 188 184 173 168 168 175 188 190 184 170 150 144 152 172 202 261 265 259 260 268 276 273 261
195 208 223 201 207 230 235 224 210 212 206 194 205 233 253 179 156 173 176 179 179 179 181 181 181 181 183 186 189 191 192 195 198 199 199 201 205 207 207 209 210 210 210 210 209 207 205 203 201 200 200 199 198 197 195 194 192 191 191 192 194 194 194 193 195 199 202 204 201 198 197 192 192 195 194 189 180 175 171 180 188 184 189 188 168 160 173 204 238 283 311 289 258 267 283 267 246
199 199 209 203 214 230 230 228 176 192 211 209 204 225 241 219 159 178 182 182 184 186 184 182 181 182 183 185 189 191 193 195 197 197 198 201 205 208 209 211 212 212 212 212 212 212 210 208 205 203 203 203 202 202 201 200 198 197 196 196 199 200 200 198 199 203 204 207 207 205 204 198 195 197 195 193 189 185 178 189 198 188 197 208 204 196 212 291 314 314 329 311 277 268 275 262 225
209 202 210 210 213 230 231 228 209 179 211 217 213 225 237 226 190 187 188 187 191 190 183 181 182 182 185 187 190 191 194 197 197 196 197 201 205 208 210 212 214 214 214 215 214 214 213 211 209 207 206 205 205 206 205 205 204 203 202 202 203 204 205 204 204 206 207 210 211 210 210 204 200 199 200 201 201 200 192 197 217 220 221 230 229 230 277 283 285 285 285 303 295 283 280 261 215
234 205 215 220 221 232 228 225 243 223 228 229 221 230 239 235 213 194 191 190 194 190 182 183 184 185 187 190 192 194 196 197 196 196 198 201 205 208 210 212 214 215 216 217 216 215 214 214 212 210 208 207 208 209 208 208 208 207 206 206 207 208 209 209 209 209 209 211 213 214 215 212 206 204 205 209 214 218 214 211 222 235 244 249 255 259 265 267 269 270 269 282 295 301 308 276 196
253 222 215 222 225 236 244 248 264 234 236 243 227 234 242 239 226 198 188 190 197 195 187 186 188 189 191 192 194 195 194 193 193 195 198 200 202 207 211 212 214 216 217 217 217 216 216 215 215 213 211 210 210 211 212 212 212 211 211 210 211 212 214 214 214 213 212 212 214 217 219 216 209 205 208 212 218 226 227 225 226 233 249 256 265 266 265 271 275 277 274 275 289 300 306 290 210
241 238 226 228 213 240 260 254 258 236 235 249 233 237 248 245 230 202 189 195 204 201 195 192 190 190 193 195 194 192 191 191 193 195 197 199 201 204 208 210 212 215 217 218 217 218 218 216 216 215 214 213 212 212 214 215 216 216 217 217 216 217 218 218 219 218 216 215 217 220 222 218 210 206 210 214 218 227 230 233 231 232 241 248 257 262 266 274 282 288 284 280 285 289 293 288 259
235 234 231 228 195 224 239 208 228 246 239 253 250 244 256 250 226 206 201 204 207 205 204 200 194 193 195 195 193 190 190 191 194 196 197 198 200 202 203 205 208 213 216 217 217 218 218 217 217 216 216 215 215 215 215 217 219 220 221 223 222 222 223 222 222 222 219 218 219 222 223 219 213 210 212 216 221 227 232 235 237 235 236 240 245 250 260 273 280 283 279 273 279 284 285 285 266
228 233 234 228 216 230 245 297 333 287 240 239 248 258 259 238 223 217 207 209 211 206 204 205 203 202 199 195 194 195 194 192 192 194 196 197 200 202 202 203 207 213 217 217 217 217 217 217 217 217 216 216 216 217 217 218 220 221 222 223 224 224 225 225 224 223 221 220 220 222 223 220 218 216 217 220 224 227 231 233 236 237 237 237 240 244 253 267 273 271 267 265 273 281 278 276 267
224 229 233 233 235 239 253 282 300 285 237 209 212 246 252 218 221 224 198 204 212 203 200 206 205 201 198 197 198 199 198 197 196 196 197 197 199 200 202 205 211 216 219 218 218 218 217 217 217 217 217 217 217 218 218 220 220 221 221 222 222 222 222 224 223 223 222 221 220 221 222 221 220 220 220 223 226 227 227 228 231 237 240 239 239 241 245 253 266 271 267 262 264 272 273 272 268
230 223 222 226 236 242 246 259 264 257 257 208 206 243 254 220 222 220 196 200 209 201 203 210 205 199 199 201 200 199 199 199 199 199 198 198 199 201 205 211 216 218 219 219 219 219 219 218 217 217 218 218 218 218 219 221 222 223 223 223 223 222 221 223 223 223 225 225 224 223 223 222 222 221 222 225 228 228 224 223 227 233 239 240 238 238 240 245 256 262 265 263 260 263 268 269 265
235 201 190 208 224 234 238 247 247 255 286 282 252 243 262 258 229 211 202 207 210 202 206 212 206 201 203 205 203 200 200 199 198 198 199 200 202 206 211 215 217 217 219 220 220 220 219 218 218 219 219 219 218 218 219 221 222 223 224 224 225 224 224 225 224 224 226 226 226 225 225 224 224 223 224 227 230 231 226 222 224 231 237 239 239 238 237 238 243 251 262 265 264 264 268 268 263
232 160 171 198 214 225 231 241 247 256 277 266 243 213 251 256 221 186 204 212 216 208 211 213 205 204 206 206 206 204 202 201 199 200 201 202 205 211 214 216 216 216 219 221 220 220 220 218 219 220 219 218 218 219 220 221 222 224 225 225 225 225 225 226 226 226 227 227 226 226 226 226 226 225 225 227 230 231 229 224 223 227 234 239 242 241 236 235 237 245 257 265 266 264 263 264 261
211 158 188 201 207 216 220 231 243 249 249 251 242 210 236 259 224 192 200 209 216 212 213 215 207 207 208 207 207 205 202 202 203 203 203 205 209 213 214 214 216 217 219 221 221 221 221 219 219 220 219 218 218 219 220 221 223 224 225 227 227 227 226 226 227 227 228 228 227 227 227 227 228 228 228 228 228 230 230 228 225 225 230 237 242 243 239 236 236 241 252 261 265 263 262 263 262
186 180 203 197 200 205 212 220 225 243 244 243 240 219 223 260 239 202 203 204 203 205 213 214 209 210 211 209 208 206 203 202 203 204 204 206 208 210 210 210 215 217 218 221 222 222 222 220 219 220 219 219 219 219 221 222 223 224 225 226 227 227 227 227 227 227 227 227 228 229 230 230 230 231 231 231 229 230 231 230 229 227 229 234 239 242 240 237 237 240 246 255 261 264 265 265 263
192 199 206 187 185 185 201 204 198 233 242 227 229 222 219 244 240 200 203 197 192 204 213 209 206 209 211 211 209 207 205 204 202 202 203 203 203 205 207 209 214 216 217 220 222 222 222 221 220 220 220 221 221 220 221 222 222 224 225 225 226 227 228 228 228 228 228 228 228 230 232 232 232 232 233 232 231 230 231 231 230 229 231 234 237 242 243 241 239 239 242 250 259 264 267 266 264
204 204 204 201 197 185 202 203 200 229 239 211 214 214 219 243 252 222 212 198 197 211 215 209 206 207 208 210 209 207 206 205 202 201 200 199 202 205 207 209 214 216 217 220 221 221 223 223 221 221 220 220 221 221 220 221 221 223 224 224 225 226 227 229 230 231 231 231 230 231 233 233 233 233 233 233 233 232 232 232 232 233 234 238 240 243 247 245 243 242 244 249 257 263 266 266 264
204 201 202 204 200 204 212 212 218 230 234 206 201 208 232 254 255 223 220 215 208 216 220 214 208 205 207 209 209 207 206 205 203 200 199 199 204 209 210 210 214 216 218 219 220 221 223 224 222 222 222 221 221 221 221 220 221 221 223 224 225 226 227 229 231 232 233 234 233 233 234 235 235 235 234 234 234 234 234 233 234 236 236 238 241 244 247 247 246 246 246 249 255 261 264 263 263
203 202 205 209 205 212 215 212 224 235 244 206 190 194 223 233 220 193 217 222 213 213 218 216 212 209 209 209 207 206 206 205 203 201 201 203 209 213 211 211 214 216 217 218 219 221 222 224 223 222 223 222 222 222 222 221 220 220 222 223 224 226 227 229 231 233 234 235 235 235 235 235 237 237 236 235 235 235 235 234 235 237 237 237 240 243 245 246 246 247 248 250 254 259 261 263 265
201 196 207 218 211 209 219 227 228 236 258 223 196 209 230 249 298 285 232 231 215 213 214 211 210 210 209 208 205 205 206 205 203 202 203 206 212 214 211 211 215 216 216 216 218 220 222 223 223 223 224 224 224 224 223 223 221 221 221 222 223 224 226 228 230 233 235 236 236 235 235 236 237 238 237 236 235 234 234 234 236 238 238 239 241 243 244 244 246 247 249 250 253 258 261 264 266
186 195 212 213 202 207 224 235 212 219 246 228 199 232 247 273 277 250 216 226 217 213 214 211 211 206 202 203 203 203 204 203 202 204 207 209 211 214 214 213 214 215 216 216 218 220 221 222 223 224 225 225 226 226 225 224 223 222 222 222 223 224 225 227 229 232 234 235 236 235 235 235 235 237 237 237 237 236 235 234 235 238 240 241 242 243 244 244 245 247 249 251 253 256 259 262 264
194 202 202 182 191 212 225 232 210 213 236 222 196 232 236 230 251 220 195 210 219 211 209 211 209 201 199 204 204 204 204 204 204 207 210 211 212 214 214 213 215 217 217 217 219 221 221 222 223 223 224 225 225 226 226 226 225 224 223 223 222 223 224 226 229 231 233 234 235 235 234 234 233 234 235 236 238 238 237 236 236 237 240 241 242 242 243 243 244 246 248 250 251 254 257 261 262
231 230 182 172 203 208 204 223 225 222 234 230 211 234 241 229 231 202 190 203 217 216 207 209 204 195 202 209 206 205 205 202 203 207 208 209 212 214 214 214 215 217 218 219 220 220 220 222 223 224 225 225 225 226 226 227 227 226 226 225 224 223 224 225 227 230 232 234 235 234 233 232 231 232 234 235 236 237 237 237 236 237 238 240 241 240 240 241 241 244 246 248 250 252 255 259 262
225 239 196 196 222 214 201 211 224 226 232 235 222 225 241 236 227 229 217 208 217 218 206 205 202 196 203 209 207 205 203 202 205 207 207 209 213 214 215 215 214 215 218 219 218 219 219 220 222 223 224 225 226 226 226 226 227 227 227 226 225 225 225 226 227 229 231 233 234 233 233 232 231 231 232 234 235 236 237 236 236 237 237 237 238 238 238 238 239 241 243 246 249 251 253 257 259
212 221 213 210 210 209 213 212 214 225 231 228 223 227 241 230 200 223 232 226 225 226 216 207 202 202 206 207 205 203 202 206 211 210 208 211 214 214 215 216 214 211 214 216 216 217 217 218 220 222 223 224 224 225 226 227 226 227 227 227 226 226 227 227 229 230 231 232 233 232 232 232 232 231 232 233 233 235 236 237 236 237 236 236 236 236 236 236 237 239 241 244 248 251 253 255 257
242 227 225 224 220 216 219 214 208 219 232 228 226 241 248 217 177 217 225 223 221 220 220 217 205 205 209 207 205 207 209 211 215 214 210 210 213 213 212 213 208 204 210 215 214 214 215 217 220 222 222 223 224 224 226 226 226 227 227 227 227 227 228 228 229 230 230 231 232 231 231 231 232 232 232 232 233 234 235 236 237 237 236 236 236 236 236 236 236 237 239 242 246 250 253 255 257